{"data":{"norad_id":66108,"epoch":"2026-05-25T02:19:42.343104Z","epoch_age_seconds":67403,"freshness":"FRESH","line1":"1 66108U 25236Y   26145.09701786  .00012610  00000+0  43702-3 0  9993","line2":"2 66108  53.1597 108.9066 0001301 107.3165 252.7978 15.30210017 34581","mean_motion":15.30210017,"eccentricity":0.0001301,"inclination_deg":53.1597,"raan_deg":108.9066,"arg_perigee_deg":107.3165,"mean_anomaly_deg":252.7978,"bstar":0.00043702,"rev_number":3458,"period_min":94.104729677769,"perigee_km":474.29354341296,"apogee_km":476.07677783916,"semimajor_km":6853.3221606261,"source":"CELESTRAK","updated_at":"2026-05-25T13:38:21.058208Z"}}